Location: Bidwell Hollow
(37.7387°N, 90.1707°W)
Time: 23:09:27
(UTC+00:00)

Transit 2A - Pass Details

Date: 19 May 2026
Orbit: 595 x 949 km, 66.7° (Epoch: 6 June)

Event Time Altitude Azimuth Distance (km) Brightness Sun altitude
Rises 06:41:12 0° 321° (NW) 3,073 9.6 -31.5°
Reaches altitude 10° 06:43:50 10° 311° (NW) 2,097 8.5 -31.4°
Enters shadow 06:44:35 14° 306° (NW) 1,840 8.2 -31.4°
